Weather in Lebedyne

Ukraine / Poltava Region     49°06′22″N   34°06′36″E
temp.,
°C
wind,
m/s
gust,
m/s
humid.,
%
clouds,
%
prec.,
mm/h
press.,
hPa
HPBL,
m
11 april, sun
sun1100:00+6nnw45585 0.0 102788
03:00+5nne35610 0.0 102763
06:00+4ne35650 0.0 102881
09:00+9ne47490 0.0 1028455
12:00+13ne673639 0.0 10281492
15:00+15ne67325 0.0 10261585
18:00+14nne5837100 0.0 1025710
21:00+10nne485285 0.0 1025162
12 april, mon
mon1200:00+8nne4958100 0.0 1025160
03:00+7nne41062100 0.0 1024225
06:00+8nne51063100 0.0 1023387
09:00+9ne4669100 0.0 1022348
12:00+12ne4570100 0.0 1021627
15:00+17ne4560100 0.0 10191051
18:00+17n226197 0.0 101830
21:00+14nw347499 0.1 101869
13 april, tue
tue1300:00+12ssw358499 0.0 1019136
03:00+10s4688100 0.0 1020238
06:00+10s3590100 0.0 1020202
09:00+11s3583100 0.0 1020341
12:00+15sse4559100 0.0 10201140
15:00+14s4459100 0.0 1020895
18:00+14se3465100 0.0 1019506
21:00+13se3572100 0.0 1020131
14 april, wed
wed1400:00+12sse2374100 0.0 101972
03:00+11sw1175100 0.0 101812
06:00+11s2278100 0.0 101826
09:00+12s3372100 0.0 1018406
12:00+15sse346269 0.0 10171165
15:00+15sse3359100 0.1 1016826
18:00+15sse245598 0.0 1015963
21:00+13sse2265100 0.0 101622
15 april, thu
thu1500:00+12ese0067100 0.0 101511
03:00+11ssw1168100 0.0 101414
06:00+9ssw2476100 0.0 1014128
09:00+11ssw2263100 0.0 1013306
12:00+14sse3252100 0.0 10121185
15:00+15se2248100 0.1 10101264
18:00+15ne445791 0.1 1009570
21:00+10ene1481100 0.3 1009157